CW7408 Weather Reports


time (UTC)temp
C
wind
direction
speed
KPH
gust
KPH
rain 1hr
cm
rain 24hr
cm
rain mn
cm
humidity
%
barometer
mb
20210518202334 26 5 0.0 8.0 0.00 0.00 0.00 23 1018.8
20210518201820 26 5 0.0 1.6 0.00 0.00 0.00 22 1018.7
20210518201326 26 5 0.0 0.0 0.00 0.00 0.00 23 1018.8
20210518200831 26 5 0.0 0.0 0.00 0.00 0.00 23 1018.9
20210518200317 26 5 0.0 0.0 0.00 0.00 0.00 23 1018.9
20210518195826 25 5 0.0 1.6 0.00 0.00 0.00 25 1019.0
20210518193319 25 5 0.0 1.6 0.00 0.00 0.00 25 1019.1
20210518192826 25 5 0.0 1.6 0.00 0.00 0.00 25 1019.1
20210518192331 25 5 0.0 1.6 0.00 0.00 0.00 24 1019.1
20210518191821 25 5 0.0 0.0 0.00 0.00 0.00 26 1019.1
20210518191325 25 5 0.0 0.0 0.00 0.00 0.00 26 1019.1
20210518190832 25 5 0.0 0.0 0.00 0.00 0.00 24 1019.1
20210518190318 25 5 0.0 0.0 0.00 0.00 0.00 28 1019.0
20210518185825 24 5 0.0 0.0 0.00 0.00 0.00 25 1019.0
20210518185332 24 5 0.0 0.0 0.00 0.00 0.00 27 1019.0
20210518184818 24 5 0.0 0.0 0.00 0.00 0.00 26 1019.1
20210518184326 23 5 0.0 0.0 0.00 0.00 0.00 26 1019.1
20210518183832 23 5 0.0 1.6 0.00 0.00 0.00 26 1019.2
20210518183319 23 5 0.0 1.6 0.00 0.00 0.00 26 1019.2
20210518182828 23 5 0.0 0.0 0.00 0.00 0.00 27 1019.2
20210518182333 23 5 0.0 1.6 0.00 0.00 0.00 26 1019.1
20210518181819 23 5 0.0 1.6 0.00 0.00 0.00 24 1019.2
20210518181326 23 5 0.0 0.0 0.00 0.00 0.00 25 1019.1
20210518180833 23 5 0.0 0.0 0.00 0.00 0.00 26 1019.1
20210518180318 23 5 0.0 1.6 0.00 0.00 0.00 26 1019.1
20210518175826 23 5 0.0 1.6 0.00 0.00 0.00 26 1019.1
20210518175331 23 5 0.0 0.0 0.00 0.00 0.00 26 1019.1
20210518174835 23 5 0.0 0.0 0.00 0.00 0.00 24 1019.1
20210518174320 22 5 0.0 0.0 0.00 0.00 0.00 25 1019.1
20210518173830 22 5 0.0 0.0 0.00 0.00 0.00 23 1019.1
20210518173317 22 5 0.0 0.0 0.00 0.00 0.00 21 1019.2
20210518172823 22 5 0.0 3.2 0.00 0.00 0.00 23 1019.1
20210518172329 21 5 0.0 3.2 0.00 0.00 0.00 23 1019.1
20210518171835 21 5 0.0 12.9 0.00 0.00 0.00 25 1019.1
20210518171321 21 5 0.0 4.8 0.00 0.00 0.00 25 1018.9
20210518170827 20 5 0.0 14.5 0.00 0.00 0.00 25 1019.0
20210518170333 20 5 3.2 16.1 0.00 0.00 0.00 25 1019.0
20210518165819 20 5 1.6 16.1 0.00 0.00 0.00 25 1018.8
20210518165323 20 5 1.6 12.9 0.00 0.00 0.00 24 1018.9
20210518164833 20 5 6.4 12.9 0.00 0.00 0.00 24 1018.9
20210518164320 20 5 1.6 8.0 0.00 0.00 0.00 26 1018.9
20210518163825 20 5 1.6 20.9 0.00 0.00 0.00 26 1018.9
20210518163331 20 5 4.8 20.9 0.00 0.00 0.00 26 1018.9
20210518162817 20 5 0.0 8.0 0.00 0.00 0.00 26 1018.9
20210518162323 20 5 0.0 14.5 0.00 0.00 0.00 26 1019.0
20210518161828 20 5 0.0 4.8 0.00 0.00 0.00 27 1018.9
20210518161335 20 5 0.0 0.0 0.00 0.00 0.00 30 1018.9
20210518160821 19 5 0.0 0.0 0.00 0.00 0.00 33 1018.9
20210518160327 18 5 0.0 0.0 0.00 0.00 0.00 31 1018.9
20210518155817 18 5 0.0 0.0 0.00 0.00 0.00 37 1019.0
20210518155322 17 5 0.0 1.6 0.00 0.00 0.00 38 1018.9
20210518154827 17 5 0.0 1.6 0.00 0.00 0.00 38 1018.9
20210518154332 16 5 0.0 0.0 0.00 0.00 0.00 44 1018.9
20210518153818 16 5 0.0 0.0 0.00 0.00 0.00 49 1018.9
20210518153325 15 5 0.0 12.9 0.00 0.00 0.00 48 1018.8
20210518152830 15 5 1.6 12.9 0.00 0.00 0.00 41 1018.7
20210518152316 13 5 0.0 0.0 0.00 0.00 0.00 48 1018.7
20210518151821 13 5 0.0 0.0 0.00 0.00 0.00 51 1018.7
20210518151327 13 5 0.0 0.0 0.00 0.00 0.00 49 1018.7
20210518150817 12 5 0.0 0.0 0.00 0.00 0.00 50 1018.6
20210518150321 12 5 0.0 0.0 0.00 0.00 0.00 55 1018.7
20210518145827 11 5 0.0 0.0 0.00 0.00 0.00 55 1018.6
20210518145331 11 5 0.0 0.0 0.00 0.00 0.00 55 1018.6
20210518144818 10 5 0.0 0.0 0.00 0.00 0.00 59 1018.5
20210518144325 10 5 0.0 0.0 0.00 0.00 0.00 60 1018.5
20210518143831 10 5 0.0 0.0 0.00 0.00 0.00 59 1018.5
20210518143318 10 5 0.0 0.0 0.00 0.00 0.00 61 1018.5
20210518142825 9 5 0.0 0.0 0.00 0.00 0.00 60 1018.3
20210518142331 9 5 0.0 0.0 0.00 0.00 0.00 62 1018.3
20210518141816 9 5 0.0 0.0 0.00 0.00 0.00 61 1018.3
20210518141323 9 5 0.0 0.0 0.00 0.00 0.00 61 1018.3
20210518140829 9 5 0.0 0.0 0.00 0.00 0.00 60 1018.3
20210518140335 8 5 0.0 0.0 0.00 0.00 0.00 60 1018.3
20210518135822 8 5 0.0 0.0 0.00 0.00 0.00 60 1018.3
20210518135327 8 5 0.0 0.0 0.00 0.00 0.00 60 1018.2
20210518134832 8 5 0.0 0.0 0.00 0.00 0.00 60 1018.1
20210518134317 8 5 0.0 0.0 0.00 0.00 0.00 59 1018.1
20210518133822 8 5 0.0 0.0 0.00 0.00 0.00 59 1018.1
20210518133328 8 5 0.0 0.0 0.00 0.00 0.00 58 1018.1
20210518132819 8 5 0.0 0.0 0.00 0.00 0.00 57 1018.1
20210518132324 8 5 0.0 0.0 0.00 0.00 0.00 56 1018.1
20210518131830 8 5 0.0 0.0 0.00 0.00 0.00 56 1018.0
20210518131336 8 5 0.0 0.0 0.00 0.00 0.00 56 1017.9
20210518130822 8 5 0.0 0.0 0.00 0.00 0.00 55 1017.9
20210518130328 8 5 0.0 0.0 0.00 0.00 0.00 55 1017.9
20210518125834 8 5 0.0 0.0 0.00 0.00 0.00 54 1017.8
20210518125320 8 5 0.0 0.0 0.00 0.00 0.00 54 1017.7
20210518124827 8 5 0.0 0.0 0.00 0.00 0.00 54 1017.7
20210518124319 8 5 0.0 0.0 0.00 0.00 0.00 54 1017.8
20210518123823 8 5 0.0 0.0 0.00 0.00 0.00 53 1017.7
20210518123330 8 5 0.0 0.0 0.00 0.00 0.00 54 1017.7
20210518122836 8 5 0.0 0.0 0.00 0.00 0.00 53 1017.7
20210518122322 8 5 0.0 0.0 0.00 0.00 0.00 53 1017.7
20210518121829 8 5 0.0 0.0 0.00 0.00 0.00 53 1017.7
20210518121333 8 5 0.0 0.0 0.00 0.00 0.00 53 1017.6
20210518120819 8 5 0.0 0.0 0.00 0.00 0.00 53 1017.6
20210518120325 8 5 0.0 0.0 0.00 0.00 0.00 52 1017.6
20210518115831 8 5 0.0 0.0 0.00 0.00 0.00 52 1017.7
20210518115321 8 5 0.0 0.0 0.00 0.00 0.00 51 1017.6
20210518114827 8 5 0.0 0.0 0.00 0.00 0.00 51 1017.7
20210518114332 8 5 0.0 0.0 0.00 0.00 0.00 51 1017.9
20210518113819 8 5 0.0 0.0 0.00 0.00 0.00 51 1017.9
20210518113325 8 5 0.0 0.0 0.00 0.00 0.00 51 1018.0
20210518112831 8 5 0.0 0.0 0.00 0.00 0.00 51 1018.0
20210518112319 8 5 0.0 0.0 0.00 0.00 0.00 50 1017.9
20210518111825 8 5 0.0 0.0 0.00 0.00 0.00 50 1017.9
20210518111330 8 5 0.0 0.0 0.00 0.00 0.00 49 1017.8
20210518110835 8 5 0.0 0.0 0.00 0.00 0.00 49 1017.8
20210518110326 9 5 0.0 0.0 0.00 0.00 0.00 49 1017.9
20210518105831 9 5 0.0 0.0 0.00 0.00 0.00 48 1017.9
20210518105317 9 5 0.0 0.0 0.00 0.00 0.00 47 1018.0
20210518104822 9 5 0.0 0.0 0.00 0.00 0.00 47 1017.9
20210518104328 10 5 0.0 0.0 0.00 0.00 0.00 46 1018.0
20210518103834 10 5 0.0 0.0 0.00 0.00 0.00 46 1017.9
20210518103319 10 5 0.0 0.0 0.00 0.00 0.00 46 1018.0
20210518102825 10 5 0.0 0.0 0.00 0.00 0.00 45 1018.0
20210518102330 10 5 0.0 0.0 0.00 0.00 0.00 45 1017.9
20210518101835 10 5 0.0 0.0 0.00 0.00 0.00 44 1018.0
20210518101326 11 5 0.0 0.0 0.00 0.00 0.00 43 1018.0
20210518100834 11 5 0.0 0.0 0.00 0.00 0.00 43 1018.0
20210518100320 11 5 0.0 0.0 0.00 0.00 0.00 42 1018.0
20210518095826 11 5 0.0 0.0 0.00 0.00 0.00 42 1018.1
20210518095332 12 5 0.0 4.8 0.00 0.00 0.00 41 1018.1
20210518094817 12 5 0.0 6.4 0.00 0.00 0.00 40 1018.0
20210518094322 12 5 0.0 0.0 0.00 0.00 0.00 39 1018.0
20210518093825 12 5 0.0 0.0 0.00 0.00 0.00 40 1018.0
20210518093332 12 5 0.0 0.0 0.00 0.00 0.00 38 1017.9
20210518092817 12 5 0.0 0.0 0.00 0.00 0.00 38 1018.0
20210518092319 12 5 0.0 4.8 0.00 0.00 0.00 39 1018.1
20210518091825 12 5 0.0 4.8 0.00 0.00 0.00 38 1018.0
20210518091330 12 5 0.0 0.0 0.00 0.00 0.00 38 1018.0
20210518090818 12 5 0.0 0.0 0.00 0.00 0.00 38 1018.1
20210518090324 12 5 0.0 0.0 0.00 0.00 0.00 39 1018.2
20210518085829 12 5 0.0 0.0 0.00 0.00 0.00 39 1018.1
20210518085334 13 5 0.0 0.0 0.00 0.00 0.00 38 1018.2
20210518084820 13 5 0.0 0.0 0.00 0.00 0.00 37 1018.3
20210518084327 13 5 0.0 0.0 0.00 0.00 0.00 36 1018.3
20210518083834 13 5 0.0 0.0 0.00 0.00 0.00 36 1018.3
20210518083325 13 5 0.0 0.0 0.00 0.00 0.00 36 1018.5
20210518082830 13 5 0.0 8.0 0.00 0.00 0.00 36 1018.5
20210518082336 13 5 1.6 8.0 0.00 0.00 0.00 34 1018.5
20210518081820 13 5 0.0 0.0 0.00 0.00 0.00 35 1018.5
20210518081327 13 5 0.0 0.0 0.00 0.00 0.00 35 1018.5
20210518080832 13 5 0.0 0.0 0.00 0.00 0.00 36 1018.7
20210518080317 13 5 0.0 0.0 0.00 0.00 0.00 36 1018.8
20210518075820 13 5 0.0 0.0 0.00 0.00 0.00 36 1018.9
20210518075326 13 5 0.0 8.0 0.00 0.00 0.00 37 1018.9
20210518074831 13 5 0.0 8.0 0.00 0.00 0.00 36 1019.1
20210518074322 13 5 0.0 8.0 0.00 0.00 0.00 37 1019.3
20210518073827 12 5 1.6 8.0 0.00 0.00 0.00 37 1019.3
20210518073332 12 5 0.0 3.2 0.00 0.00 0.00 38 1019.3
20210518072819 12 5 0.0 0.0 0.00 0.00 0.00 38 1019.5
20210518072324 12 5 0.0 0.0 0.00 0.00 0.00 39 1019.6
20210518071830 12 5 0.0 0.0 0.00 0.00 0.00 38 1019.7
20210518071334 12 5 0.0 0.0 0.00 0.00 0.00 38 1019.7
20210518070818 12 5 0.0 0.0 0.00 0.00 0.00 38 1019.7
20210518070322 12 5 0.0 0.0 0.00 0.00 0.00 41 1019.8
20210518065828 12 5 0.0 0.0 0.00 0.00 0.00 40 1019.8
20210518065317 12 5 0.0 0.0 0.00 0.00 0.00 40 1019.8
20210518064822 12 5 0.0 1.6 0.00 0.00 0.00 42 1019.9
20210518064329 12 5 0.0 3.2 0.00 0.00 0.00 41 1019.9
20210518063833 12 5 0.0 3.2 0.00 0.00 0.00 42 1019.9
20210518063318 12 5 0.0 3.2 0.00 0.00 0.00 45 1019.9
20210518062823 12 5 0.0 3.2 0.00 0.00 0.00 42 1019.9
20210518062327 11 5 0.0 0.0 0.00 0.00 0.00 42 1019.9
20210518061834 11 5 0.0 0.0 0.00 0.00 0.00 46 1020.0
20210518061320 11 5 0.0 0.0 0.00 0.00 0.00 47 1019.9
20210518060827 11 5 0.0 0.0 0.00 0.00 0.00 49 1020.0
20210518060317 11 5 0.0 1.6 0.00 0.00 0.00 48 1019.8
20210518055822 11 5 0.0 1.6 0.00 0.00 0.00 48 1019.9
20210518055327 11 5 0.0 0.0 0.00 0.00 0.00 51 1020.1
20210518054833 11 5 0.0 0.0 0.00 0.00 0.00 49 1019.9
20210518054318 11 5 0.0 0.0 0.00 0.00 0.00 53 1019.9
20210518053823 11 5 0.0 0.0 0.00 0.00 0.00 55 1019.8
20210518053328 11 5 0.0 0.0 0.00 0.00 0.00 56 1019.7
20210518052832 11 5 0.0 0.0 0.00 0.00 0.00 56 1019.7
20210518052318 11 5 0.0 0.0 0.00 0.00 0.00 56 1019.6
20210518051823 11 5 0.0 0.0 0.00 0.00 0.00 55 1019.6
20210518051329 11 5 0.0 0.0 0.00 0.00 0.00 56 1019.7
20210518050820 12 5 0.0 0.0 0.00 0.00 0.00 55 1019.6
20210518050327 12 5 0.0 0.0 0.00 0.00 0.00 55 1019.7
20210518045832 12 5 0.0 0.0 0.00 0.00 0.00 56 1019.6
20210518045319 12 5 0.0 0.0 0.00 0.00 0.00 56 1019.6
20210518044824 11 5 0.0 0.0 0.00 0.00 0.00 56 1019.6
20210518044329 11 5 0.0 0.0 0.00 0.00 0.00 57 1019.5
20210518043835 11 5 0.0 0.0 0.00 0.00 0.00 58 1019.4
20210518043319 11 5 0.0 0.0 0.00 0.00 0.00 58 1019.4
20210518042825 11 5 0.0 0.0 0.00 0.00 0.00 58 1019.3
20210518042330 11 5 0.0 0.0 0.00 0.00 0.00 59 1019.3
20210518041819 11 5 0.0 0.0 0.00 0.00 0.00 59 1019.2
20210518041325 11 5 0.0 0.0 0.00 0.00 0.00 61 1019.3
20210518040829 11 5 0.0 0.0 0.00 0.00 0.00 62 1019.3
20210518040334 11 5 0.0 0.0 0.00 0.00 0.00 62 1019.3
20210518035820 11 5 0.0 0.0 0.00 0.00 0.00 61 1019.2
20210518035325 11 5 0.0 0.0 0.00 0.00 0.00 62 1019.2
20210518034830 11 5 0.0 0.0 0.00 0.00 0.00 62 1019.2
20210518034317 11 5 0.0 0.0 0.00 0.00 0.00 62 1019.1
20210518033821 11 5 0.0 0.0 0.00 0.00 0.00 63 1019.1
20210518033326 11 5 0.0 0.0 0.00 0.00 0.00 63 1019.1
20210518032836 11 5 0.0 0.0 0.00 0.00 0.00 63 1019.1
20210518032321 11 5 0.0 0.0 0.00 0.00 0.00 64 1018.9
20210518031827 11 5 0.0 0.0 0.00 0.00 0.00 65 1019.0
20210518031334 12 5 0.0 0.0 0.00 0.00 0.00 65 1019.0
20210518030820 12 5 0.0 0.0 0.00 0.00 0.00 65 1019.0
20210518030325 12 5 0.0 0.0 0.00 0.00 0.00 65 1019.0
20210518025831 12 5 0.0 0.0 0.00 0.00 0.00 65 1018.9
20210518025317 12 5 0.0 0.0 0.00 0.00 0.00 65 1018.8
20210518024824 12 5 0.0 0.0 0.00 0.00 0.00 66 1018.8
20210518024329 12 5 0.0 0.0 0.00 0.00 0.00 68 1018.8
20210518023820 12 5 0.0 0.0 0.00 0.00 0.00 68 1018.9
20210518023326 12 5 0.0 0.0 0.00 0.00 0.00 68 1018.8
20210518022833 12 5 0.0 4.8 0.00 0.00 0.00 70 1018.9
20210518022317 12 5 1.6 4.8 0.00 0.00 0.00 69 1018.8
20210518021822 12 5 0.0 0.0 0.00 0.00 0.00 68 1018.8
20210518021327 13 5 0.0 0.0 0.00 0.00 0.00 68 1018.9
20210518020833 13 5 0.0 0.0 0.00 0.00 0.00 67 1018.9
20210518020318 13 5 0.0 0.0 0.00 0.00 0.00 66 1018.7
20210518015824 13 5 0.0 0.0 0.00 0.00 0.00 65 1018.7
20210518015330 14 5 0.0 0.0 0.00 0.00 0.00 63 1018.7
20210518014819 14 5 0.0 0.0 0.00 0.00 0.00 62 1018.7
20210518014324 15 5 0.0 0.0 0.00 0.00 0.00 61 1018.8
20210518013829 15 5 0.0 0.0 0.00 0.00 0.00 59 1018.7
20210518013335 15 5 0.0 0.0 0.00 0.00 0.00 59 1018.7
20210518012821 15 5 0.0 0.0 0.00 0.00 0.00 59 1018.6
20210518012327 15 5 0.0 0.0 0.00 0.00 0.00 58 1018.6
20210518011833 15 5 0.0 0.0 0.00 0.00 0.00 57 1018.6
20210518011317 16 5 0.0 0.0 0.00 0.00 0.00 56 1018.6
20210518010822 16 5 0.0 0.0 0.00 0.00 0.00 55 1018.5
20210518010329 16 5 0.0 0.0 0.00 0.00 0.00 52 1018.5
20210518005818 16 5 0.0 1.6 0.00 0.00 0.00 48 1018.5
20210518005324 16 5 0.0 1.6 0.00 0.00 0.00 48 1018.6
20210518004831 16 5 0.0 0.0 0.00 0.00 0.00 47 1018.5
20210518004317 16 5 0.0 0.0 0.00 0.00 0.00 47 1018.6
20210518003823 16 5 0.0 0.0 0.00 0.00 0.00 47 1018.5
20210518003329 16 5 0.0 0.0 0.00 0.00 0.00 49 1018.5
20210518002834 17 5 0.0 0.0 0.00 0.00 0.00 49 1018.6
20210518002318 17 5 0.0 0.0 0.00 0.00 0.00 52 1018.6
20210518001824 17 5 0.0 0.0 0.00 0.00 0.00 50 1018.6
20210518001328 17 5 0.0 0.0 0.00 0.00 0.00 51 1018.7
20210518000817 17 5 0.0 0.0 0.00 0.00 0.00 51 1018.7
20210518000324 18 5 0.0 0.0 0.00 0.00 0.00 51 1018.6
20210517235822 18 5 0.0 0.0 0.00 0.00 0.00 50 1018.6
20210517235328 18 5 0.0 0.0 0.00 0.00 0.00 48 1018.6
20210517234834 18 5 0.0 0.0 0.00 0.00 0.00 48 1018.6
20210517234320 18 5 0.0 0.0 0.00 0.00 0.00 49 1018.6
20210517233827 18 5 0.0 0.0 0.00 0.00 0.00 49 1018.6
20210517233333 18 5 0.0 0.0 0.00 0.00 0.00 50 1018.6
20210517232819 19 5 0.0 0.0 0.00 0.00 0.00 49 1018.5
20210517232327 19 5 0.0 0.0 0.00 0.00 0.00 49 1018.6
20210517231817 19 5 0.0 0.0 0.00 0.00 0.00 49 1018.7
20210517231324 19 5 0.0 1.6 0.00 0.00 0.00 49 1018.7
20210517230830 18 5 0.0 1.6 0.00 0.00 0.00 50 1018.8
20210517230316 18 5 0.0 1.6 0.00 0.00 0.00 50 1018.7
20210517225822 18 5 0.0 0.0 0.00 0.00 0.00 51 1018.7
20210517225329 18 5 0.0 1.6 0.00 0.00 0.00 51 1018.6
20210517224835 18 5 0.0 1.6 0.00 0.00 0.00 50 1018.7
20210517224320 18 5 0.0 1.6 0.00 0.00 0.00 50 1018.7
20210517223826 18 5 0.0 1.6 0.00 0.00 0.00 48 1018.8
20210517223331 19 5 0.0 0.0 0.00 0.00 0.00 49 1018.8
20210517222822 18 5 0.0 3.2 0.00 0.00 0.00 48 1018.9
20210517222328 19 5 0.0 6.4 0.00 0.00 0.00 47 1018.9
20210517221835 20 360 1.6 6.4 0.00 0.00 0.00 46 1018.8
20210517221320 21 5 0.0 1.6 0.00 0.00 0.00 43 1018.7
20210517220826 21 5 0.0 0.0 0.00 0.00 0.00 42 1018.6
20210517220334 21 5 0.0 3.2 0.00 0.00 0.00 38 1018.6
20210517215819 21 5 0.0 3.2 0.00 0.00 0.00 29 1018.7
20210517215324 21 5 0.0 3.2 0.00 0.00 0.00 32 1018.6
20210517214831 21 5 0.0 1.6 0.00 0.00 0.00 31 1018.6
20210517214320 21 5 0.0 0.0 0.00 0.00 0.00 30 1018.7
20210517213826 21 5 0.0 0.0 0.00 0.00 0.00 32 1018.7
20210517213330 20 5 0.0 0.0 0.00 0.00 0.00 30 1018.7
20210517212816 20 5 0.0 1.6 0.00 0.00 0.00 33 1018.7
20210517212323 20 5 0.0 1.6 0.00 0.00 0.00 32 1018.7
20210517211829 20 5 0.0 1.6 0.00 0.00 0.00 32 1018.6
20210517211335 20 5 0.0 1.6 0.00 0.00 0.00 32 1018.6
20210517210821 20 5 0.0 1.6 0.00 0.00 0.00 32 1018.7
20210517210326 20 5 0.0 1.6 0.00 0.00 0.00 32 1018.7
20210517205832 20 5 0.0 0.0 0.00 0.00 0.00 31 1018.7
20210517205323 21 5 0.0 1.6 0.00 0.00 0.00 30 1018.7
20210517204828 21 5 0.0 1.6 0.00 0.00 0.00 31 1018.7
20210517204334 21 5 0.0 0.0 0.00 0.00 0.00 32 1018.7
20210517203820 20 5 0.0 0.0 0.00 0.00 0.00 32 1018.7
20210517203327 20 5 0.0 0.0 0.00 0.00 0.00 33 1018.7
20210517202831 20 5 0.0 0.0 0.00 0.00 0.00 33 1018.7